Regional Weather Roundup
Issued by NWS Cleveland, OH

Home | Current Version | Previous Version | Text Only | Print | Product List | Glossary Off
Versions: 1 2 3 4 5 6 7 8 9 10 11 12 13 14 15 16 17 18 19 20 21 22 23 24 25 26 27 28 29 30 31 32 33 34 35 36 37 38 39 40 41 42 43 44 45 46 47 48 49 50

000
ASUS41 KCLE 291010
RWRCLE
OHIO REGIONAL WEATHER ROUNDUP
NATIONAL WEATHER SERVICE WILMINGTON, OH
500 AM EST THU JAN 29 2015

NOTE: "FAIR" INDICATES FEW OR NO CLOUDS BELOW 12,000 FEET WITH NO
SIGNIFICANT WEATHER AND/OR OBSTRUCTIONS TO VISIBILITY.

OHZ001>008-015>018-024>027-034-035-043-044-291100-
   NORTHWEST OHIO

CITY           SKY/WX    TMP DP  RH WIND       PRES   REMARKS
DEFIANCE       LGT RAIN  33  22  63 S8        29.87F WCI  26
FINDLAY        CLOUDY    30  20  66 SE17G25   29.89F WCI  18
TOLEDO EXPRESS CLOUDY    28  19  69 VRB6      29.88F WCI  22
TOLEDO EXEC    CLOUDY    30  19  63 S14       29.92F WCI  19
LIMA           CLOUDY    32  21  64 S18       29.88F WCI  20
$$

OHZ009>014-019>023-028>033-038-089-291100-
   NORTHEAST OHIO

CITY           SKY/WX    TMP DP  RH WIND       PRES   REMARKS
CLE-HOPKINS    CLOUDY    28  12  51 S20G25    30.01F WCI  15
CLE-LAKEFRONT  CLOUDY    30   9  41 SE18G31   29.98F WCI  18
CUY CO. ARPT   NOT AVBL
LORAIN-ELYRIA  CLOUDY    28  15  58 S17       29.97F WCI  16
ASHTABULA      CLOUDY    25   8  48 S15       30.07F WCI  13
AKRON-CANTON   CLOUDY    27  11  51 SE16      30.04F WCI  15
WOOSTER        CLOUDY    26  17  68 S13       30.01F WCI  15
MANSFIELD      CLOUDY    27  18  69 SE22      29.94F WCI  13
YOUNGSTOWN     CLOUDY    22  12  65 SE13      30.07F WCI  10
$$

OHZ042-051>053-060>062-070>072-077>081-291100-
  SOUTHWEST OHIO

CITY           SKY/WX    TMP DP  RH WIND       PRES   REMARKS
CINC-COVINGTON CLOUDY    36  21  54 S16       29.95F
CINC-LUNKEN    CLOUDY    34  21  59 S10       29.99F WCI  26
HAMILTON       CLOUDY    35  21  56 VRB7      29.96F WCI  29
DAYTON         CLOUDY    34  22  61 S16       29.92F WCI  24
WRIGHT-PAT AFB CLOUDY    32  21  65 S10       29.95F WCI  23
DAYTON GENERAL MOCLDY    34  22  61 S16       29.93F WCI  24
WILMINGTON     MOCLDY    32  19  58 S14       29.96F WCI  22
$$

OHZ036-037-039>041-045>050-054>059-063>069-073>076-082>088-291100-
  CENTRAL AND SOUTHEAST OHIO

CITY           SKY/WX    TMP DP  RH WIND       PRES   REMARKS
COLUMBUS       CLOUDY    28  17  63 SE10      30.01F WCI  19
OSU AIRPORT    CLOUDY    28  18  66 S9        29.99F WCI  19
BOLTON FIELD   CLOUDY    27  19  72 SE9       30.00F WCI  18
RICKENBACK AFB CLOUDY    29  20  68 S7        30.01F WCI  22
NEWARK         CLOUDY    28  17  63 SE8       30.02F WCI  20
MARION         CLOUDY    30  19  63 S18       29.95F WCI  18
LANCASTER      CLOUDY    28  18  66 SE10      30.02F WCI  19
ZANESVILLE     MOCLDY    26  15  63 S12       30.07F WCI  16
NEW PHILLY     CLOUDY    26  15  63 SE6       30.09F WCI  19
$$



USA.gov is the U.S. government's official web portal to all federal, state and local government web resources and services.